Weather History for Plant City, FL

Change the Weather History Date:

Tuesday, June 3, 2014

  Actual Average Record
Temperature  
Mean Temperature 79 °F -  
Max Temperature 87 °F 91 °F 101 °F (1985)
Min Temperature 71 °F 68 °F 49 °F (1933)
Cooling Degree Days 14    
Growing Degree Days 29 (Base 50)    
Moisture  
Dew Point 63 °F    
Average Humidity 58    
Maximum Humidity 83    
Minimum Humidity 38    
Precipitation  
Precipitation 0.00 in - - ()
Sea Level Pressure  
Sea Level Pressure 30.07 in    
Wind  
Wind Speed 5 mph (East)    
Max Wind Speed 12 mph    
Max Gust Speed 16 mph    
Visibility 10 miles    
Events      
Averages and records for this station are not official NWS values.
T = Trace of Precipitation, MM = Missing Value Source: NWS Daily Summary

Daily Weather History Graph

Daily Weather History Graph

Search for Another Location

Airport:

Trip Planner

Search our weather history database for the weather conditions in past years. The results will help you decide how hot, cold, wet, or windy it might be!

Date:

Astronomy

Jun. 03, 2014 Rise Set
Actual Time 6:32 AM EDT 8:21 PM EDT
Civil Twilight 6:05 AM EDT 8:48 PM EDT
Nautical Twilight 5:33 AM EDT 9:20 PM EDT
Astronomical Twilight 5:00 AM EDT 9:53 PM EDT
Moon 11:36 AM EDT (6/3) 12:04 AM EDT (6/3)
Length of Visible Light 14h 42m
Length of Day
13h 49m
Waxing Crescent, 30% of the Moon is Illuminated
Jun 3
Waxing Crescent
Jun 5
First Quarter
Jun 13
Full
Jun 19
Last Quarter
Jun 27
New

Hourly Weather History & Observations

Time (EDT) Temp. Heat Index Dew Point Humidity Pressure Visibility Wind Dir Wind Speed Gust Speed Precip Events Conditions
12:15 AM 75.2 °F - 64.4 °F 69% 30.12 in 10.0 mi East 4.6 mph - N/A   Clear
12:35 AM 75.2 °F - 64.4 °F 69% 30.12 in 10.0 mi East 4.6 mph - N/A   Clear
12:55 AM - - - N/A% 30.11 in 10.0 mi East 4.6 mph - N/A   Clear
1:15 AM 75.2 °F - 64.4 °F 69% 30.11 in 10.0 mi East 3.5 mph - N/A   Clear
1:35 AM 73.4 °F - 64.4 °F 73% 30.11 in 10.0 mi East 3.5 mph - N/A   Clear
1:55 AM 73.4 °F - 64.4 °F 73% 30.10 in 10.0 mi East 3.5 mph - N/A   Clear
2:15 AM 73.4 °F - 64.4 °F 73% 30.10 in 10.0 mi East 4.6 mph - N/A   Clear
2:35 AM 73.4 °F - 64.4 °F 73% 30.09 in 10.0 mi East 3.5 mph - N/A   Clear
2:55 AM 73.4 °F - 66.2 °F 78% 30.09 in 10.0 mi East 3.5 mph - N/A   Clear
3:15 AM 73.4 °F - 66.2 °F 78% 30.08 in 10.0 mi East 4.6 mph - N/A   Clear
3:35 AM 73.4 °F - 66.2 °F 78% 30.08 in 10.0 mi East 3.5 mph - N/A   Clear
3:55 AM 73.4 °F - 66.2 °F 78% 30.07 in 10.0 mi East 4.6 mph - N/A   Clear
4:15 AM 73.4 °F - 66.2 °F 78% 30.07 in 10.0 mi ENE 3.5 mph - N/A   Clear
4:35 AM - - - N/A% 30.07 in 10.0 mi ENE 4.6 mph - N/A   Clear
4:55 AM 71.6 °F - 66.2 °F 83% 30.07 in 10.0 mi NE 3.5 mph - N/A   Clear
5:15 AM - - - N/A% 30.07 in 10.0 mi ENE 3.5 mph - N/A   Clear
5:35 AM - - - N/A% 30.07 in 10.0 mi NE 3.5 mph - N/A   Clear
5:55 AM - - - N/A% 30.07 in 10.0 mi ENE 3.5 mph - N/A   Clear
6:15 AM - - - N/A% 30.07 in 10.0 mi NE 3.5 mph - N/A   Clear
6:35 AM - - - N/A% 30.07 in 10.0 mi NE 3.5 mph - N/A   Clear
6:55 AM - - - N/A% 30.08 in 10.0 mi NE 4.6 mph - N/A   Clear
7:15 AM - - - N/A% 30.09 in 10.0 mi ENE 5.8 mph - N/A   Clear
7:35 AM - - - N/A% 30.09 in 10.0 mi ENE 5.8 mph - N/A   Clear
7:55 AM - - - N/A% 30.10 in 10.0 mi ENE 6.9 mph - N/A   Clear
8:15 AM - - - N/A% 30.10 in 10.0 mi East 4.6 mph - N/A   Clear
8:35 AM 77.0 °F - 66.2 °F 69% 30.10 in 10.0 mi East 4.6 mph - N/A   Clear
8:55 AM 77.0 °F - 64.4 °F 65% 30.10 in 10.0 mi East 6.9 mph - N/A   Clear
9:15 AM 78.8 °F - 64.4 °F 61% 30.11 in 10.0 mi East 5.8 mph - N/A   Clear
9:35 AM 78.8 °F - 64.4 °F 61% 30.11 in 10.0 mi ESE 8.1 mph - N/A   Clear
9:55 AM 80.6 °F 82.3 °F 64.4 °F 58% 30.11 in 10.0 mi East 8.1 mph 16.1 mph N/A   Clear
10:15 AM 80.6 °F 81.8 °F 62.6 °F 54% 30.11 in 10.0 mi East 8.1 mph - N/A   Clear
10:35 AM 80.6 °F 81.8 °F 62.6 °F 54% 30.10 in 10.0 mi East 8.1 mph - N/A   Clear
10:55 AM 80.6 °F 81.8 °F 62.6 °F 54% 30.11 in 10.0 mi ESE 8.1 mph - N/A   Clear
11:15 AM 82.4 °F 83.4 °F 62.6 °F 51% 30.11 in 10.0 mi ESE 9.2 mph - N/A   Scattered Clouds
11:35 AM 82.4 °F 83.4 °F 62.6 °F 51% 30.11 in 10.0 mi North - - N/A   Mostly Cloudy
11:55 AM 84.2 °F 85.0 °F 62.6 °F 48% 30.11 in 10.0 mi East 11.5 mph - N/A   Overcast
12:15 PM 84.2 °F 84.4 °F 60.8 °F 45% 30.10 in 10.0 mi East 6.9 mph 16.1 mph N/A   Overcast
12:35 PM 84.2 °F 84.4 °F 60.8 °F 45% 30.09 in 10.0 mi ESE 5.8 mph - N/A   Overcast
12:55 PM 84.2 °F 84.4 °F 60.8 °F 45% 30.08 in 10.0 mi East 8.1 mph - N/A   Mostly Cloudy
1:15 PM 86.0 °F 86.1 °F 60.8 °F 43% 30.07 in 10.0 mi ESE 8.1 mph - N/A   Scattered Clouds
1:35 PM 86.0 °F 85.4 °F 59.0 °F 40% 30.07 in 10.0 mi ESE 8.1 mph - N/A   Scattered Clouds
1:55 PM 87.8 °F 87.6 °F 60.8 °F 40% 30.06 in 10.0 mi East 10.4 mph - N/A   Scattered Clouds
2:15 PM 87.8 °F 87.1 °F 59.0 °F 38% 30.05 in 10.0 mi East 8.1 mph - N/A   Scattered Clouds
2:35 PM 86.0 °F 86.1 °F 60.8 °F 43% 30.05 in 10.0 mi East 6.9 mph - N/A   Mostly Cloudy
2:55 PM 87.8 °F 87.1 °F 59.0 °F 38% 30.04 in 10.0 mi East 6.9 mph - N/A   Mostly Cloudy
3:15 PM 86.0 °F 86.1 °F 60.8 °F 43% 30.04 in 10.0 mi ESE 6.9 mph - N/A   Mostly Cloudy
3:55 PM 86.0 °F 86.1 °F 60.8 °F 43% 30.03 in 10.0 mi ENE 8.1 mph - N/A   Mostly Cloudy
4:15 PM 86.0 °F 86.6 °F 62.6 °F 45% 30.03 in 10.0 mi East 9.2 mph - N/A   Mostly Cloudy
4:35 PM 84.2 °F 85.0 °F 62.6 °F 48% 30.03 in 10.0 mi East 6.9 mph - N/A   Overcast
4:55 PM 84.2 °F 85.0 °F 62.6 °F 48% 30.02 in 10.0 mi East 6.9 mph - N/A   Overcast
5:15 PM 84.2 °F 85.6 °F 64.4 °F 51% 30.02 in 10.0 mi East 5.8 mph - N/A   Overcast
5:35 PM 84.2 °F 85.0 °F 62.6 °F 48% 30.02 in 10.0 mi East 6.9 mph - N/A   Overcast
5:55 PM 84.2 °F 85.0 °F 62.6 °F 48% 30.02 in 10.0 mi East 6.9 mph - N/A   Overcast
6:15 PM 84.2 °F 85.6 °F 64.4 °F 51% 30.02 in 10.0 mi East 6.9 mph - N/A   Overcast
6:35 PM 82.4 °F 83.9 °F 64.4 °F 54% 30.02 in 10.0 mi East 6.9 mph - N/A   Overcast
6:55 PM 82.4 °F 83.4 °F 62.6 °F 51% 30.02 in 10.0 mi East 6.9 mph - N/A   Overcast
7:15 PM 82.4 °F 83.4 °F 62.6 °F 51% 30.02 in 10.0 mi East 6.9 mph - N/A   Mostly Cloudy
7:35 PM 80.6 °F 81.8 °F 62.6 °F 54% 30.02 in 10.0 mi East 5.8 mph - N/A   Scattered Clouds
7:55 PM 80.6 °F 81.8 °F 62.6 °F 54% 30.02 in 10.0 mi East 4.6 mph - N/A   Scattered Clouds
8:15 PM 80.6 °F 82.3 °F 64.4 °F 58% 30.02 in 10.0 mi East 4.6 mph - N/A   Clear
8:35 PM 78.8 °F - 64.4 °F 61% 30.03 in 10.0 mi East 3.5 mph - N/A   Clear
8:55 PM 78.8 °F - 64.4 °F 61% 30.03 in 10.0 mi East 3.5 mph - N/A   Clear
9:15 PM 78.8 °F - 64.4 °F 61% 30.03 in 10.0 mi East 5.8 mph - N/A   Clear
9:35 PM 78.8 °F - 64.4 °F 61% 30.03 in 10.0 mi East 3.5 mph - N/A   Clear
9:55 PM 77.0 °F - 64.4 °F 65% 30.04 in 10.0 mi East 4.6 mph - N/A   Clear
10:15 PM 77.0 °F - 64.4 °F 65% 30.04 in 10.0 mi East 3.5 mph - N/A   Mostly Cloudy
10:35 PM 77.0 °F - 66.2 °F 69% 30.04 in 10.0 mi East 3.5 mph - N/A   Overcast
11:15 PM 77.0 °F - 64.4 °F 65% 30.04 in 10.0 mi ESE 5.8 mph - N/A   Scattered Clouds
11:35 PM 77.0 °F - 62.6 °F 61% 30.04 in 10.0 mi ESE 6.9 mph - N/A   Clear
11:55 PM 75.2 °F - 62.6 °F 65% 30.04 in 10.0 mi ESE 4.6 mph - N/A   Scattered Clouds